Wind_Speed
59 58 58 58 57 58 58 58 58 58 59 59 59 59 58 58 59 60 60 61 61 59 58 57 58 59 61 62 63 64 64 64 65 67 68 69 69 67 66 66 67 68 68 68 68 68 68 67 67 66 64 62 60 59 58 57 56 54 51 48 44 41 38 36 35 37 34 22 19 23 24 31 33 31 30 27 24 21 19 18 17 17 16 15 16
60 60 60 59 59 59 59 59 60 61 62 62 61 61 60 60 61 61 62 63 62 61 59 58 59 62 64 65 66 66 66 67 68 69 68 67 66 65 66 67 67 68 68 68 68 67 67 66 64 62 60 58 57 56 56 55 54 51 48 43 40 38 36 35 36 34 29 22 23 27 27 30 31 29 27 24 21 19 17 16 16 17 17 17 17
62 62 61 60 61 61 61 62 62 63 64 64 63 63 62 62 62 63 64 64 64 62 61 61 62 64 66 67 66 67 68 69 70 69 67 66 66 67 67 68 68 69 68 68 67 66 64 62 60 57 56 55 54 54 53 52 51 47 43 39 37 37 36 35 35 31 29 26 26 28 29 29 29 27 24 21 19 17 16 15 16 17 18 19 19
63 64 62 62 63 64 64 64 65 66 66 66 64 64 63 63 64 65 66 66 66 65 64 64 66 67 67 67 68 69 70 70 69 67 66 67 68 68 69 69 69 69 67 65 63 61 59 57 56 54 53 53 52 52 51 49 46 42 39 37 36 36 35 34 32 30 28 27 27 29 29 29 28 26 23 20 18 16 15 15 16 18 19 20 20
65 66 65 65 66 66 67 68 69 69 69 67 66 65 65 65 67 68 69 69 69 68 68 68 68 69 69 69 70 70 69 69 68 67 68 68 69 70 70 69 68 66 63 61 59 57 56 55 53 52 52 51 51 50 49 45 40 37 36 35 35 34 33 32 30 28 27 27 29 28 28 29 28 25 22 19 17 16 14 14 16 18 19 20 20
67 67 67 68 69 70 71 72 72 72 70 69 68 67 67 69 71 71 71 71 72 71 71 70 70 70 70 69 68 68 68 68 68 68 69 70 70 69 68 66 64 62 59 57 56 55 53 52 51 50 50 49 49 48 44 40 36 35 35 34 33 32 31 30 28 27 27 28 28 28 28 28 27 25 22 19 17 16 15 15 15 17 18 19 20
67 68 68 69 70 71 72 72 72 72 70 69 68 68 69 69 70 70 70 70 70 70 70 69 69 69 68 67 67 67 68 68 68 69 69 68 67 65 63 61 60 58 57 55 54 52 51 50 50 49 48 47 46 43 39 35 34 34 33 32 31 30 29 27 26 26 27 28 28 28 28 27 26 24 22 20 18 17 16 16 16 17 18 20 20
65 65 66 66 66 66 67 67 68 68 68 68 68 68 67 65 65 65 65 65 66 67 67 67 68 68 68 68 67 67 67 68 68 67 65 63 61 60 59 59 58 56 54 52 51 50 49 49 48 47 46 45 42 38 34 33 32 31 30 30 29 28 26 25 26 27 27 27 28 28 28 27 26 24 22 20 18 18 17 17 17 18 19 20 21
63 64 64 64 63 63 63 63 63 64 64 64 64 64 63 62 62 63 63 64 65 66 66 67 68 68 68 67 66 66 66 65 64 61 59 58 58 58 58 57 55 53 51 50 49 49 48 47 46 45 44 41 37 33 31 30 29 28 29 29 28 26 24 24 26 27 27 27 27 28 27 27 26 24 23 21 19 18 18 18 19 19 20 21 21
62 63 63 64 63 63 62 61 60 60 60 61 61 62 62 63 63 64 65 66 67 66 66 66 66 66 65 65 64 64 63 61 59 58 58 58 58 57 56 54 53 51 50 49 48 48 47 46 44 43 40 35 32 30 29 27 25 27 28 28 26 23 23 25 26 27 26 26 26 26 26 26 26 25 24 23 21 19 19 19 20 20 21 21 21
61 62 62 62 63 63 62 61 61 60 60 61 62 63 64 65 65 65 65 66 66 65 64 63 63 63 63 62 62 61 59 58 58 58 58 58 57 56 55 53 51 50 49 48 48 47 45 44 42 39 34 30 28 27 25 24 24 27 27 25 23 22 24 26 27 26 25 25 25 25 26 26 27 26 25 24 23 22 20 20 20 20 21 21 22
61 61 62 62 62 62 61 61 61 61 62 63 63 64 64 65 65 64 63 64 63 63 62 62 62 62 62 61 60 59 58 58 58 58 58 56 56 55 53 51 49 48 48 47 47 45 43 41 38 33 29 26 25 24 23 23 25 26 25 22 21 22 25 27 27 26 25 24 25 25 25 27 28 28 26 25 25 24 22 21 20 20 20 21 22
60 60 61 61 61 61 61 60 60 61 62 62 62 62 62 62 61 61 61 61 61 61 62 63 63 62 61 61 60 60 59 58 58 57 56 55 54 53 50 49 48 48 47 46 45 43 39 36 31 27 25 24 23 22 22 23 25 26 23 21 21 23 26 27 26 26 25 25 25 25 25 27 30 30 28 26 25 24 24 22 21 20 20 20 21
59 59 60 60 60 60 60 60 60 61 61 60 59 58 57 58 58 59 60 61 61 62 62 62 62 61 61 61 60 60 59 58 58 56 54 53 51 49 47 47 47 47 46 45 42 38 34 29 25 22 23 23 22 22 23 24 26 24 21 20 21 24 26 27 26 25 25 25 26 26 26 27 30 32 30 27 25 24 24 23 21 20 19 20 21
58 59 59 59 59 59 60 60 60 60 60 60 58 58 58 58 58 58 59 60 60 61 61 61 61 62 61 61 60 59 58 57 56 55 53 50 47 45 45 45 45 45 43 40 37 33 28 23 20 20 22 22 23 23 22 24 25 22 21 21 22 25 27 26 25 25 25 25 26 27 27 28 31 33 31 27 24 24 23 23 21 19 19 19 20
58 59 59 58 58 59 59 59 60 60 60 59 59 59 58 57 56 56 56 57 58 59 60 61 61 61 60 59 58 57 56 56 54 53 50 46 44 43 43 43 43 41 38 35 32 28 22 19 19 21 22 23 24 22 21 23 23 21 21 22 23 26 27 26 25 24 25 25 26 27 27 29 31 33 31 26 24 23 22 21 21 19 19 19 19
58 58 57 57 57 58 59 59 59 58 58 57 57 56 55 54 54 54 55 55 56 57 57 57 56 54 53 51 51 51 52 52 51 48 45 43 41 40 40 41 40 36 33 31 28 23 18 17 19 22 23 24 24 22 21 22 21 21 21 22 24 26 27 26 24 24 24 25 26 27 27 29 31 32 30 26 24 22 21 20 20 19 19 19 19
57 57 56 56 55 56 56 55 55 54 55 55 56 54 53 52 51 52 53 54 53 51 48 45 42 40 39 40 41 43 44 44 44 43 42 41 39 38 38 38 36 33 30 28 24 20 18 18 20 23 24 25 24 22 21 21 20 20 20 22 25 26 27 26 24 24 24 25 25 25 26 29 30 31 29 26 24 22 21 20 20 19 19 18 17
55 55 53 51 50 50 50 51 51 51 51 52 52 50 48 49 49 49 48 45 42 39 35 31 31 33 35 37 38 39 39 40 40 41 40 39 37 36 36 35 33 29 27 25 23 21 19 19 20 23 24 24 23 22 22 21 19 18 20 23 25 26 27 26 25 24 24 24 23 23 26 28 29 30 29 26 23 22 21 20 20 19 18 18 17
51 50 49 47 46 46 47 47 47 46 46 46 46 45 46 46 44 41 36 32 32 30 29 30 33 36 38 38 38 38 38 38 39 38 37 35 34 34 34 33 30 26 24 23 23 22 20 19 20 21 22 22 22 22 23 22 19 18 21 23 25 27 27 26 25 25 25 23 22 23 24 26 28 30 28 25 23 21 20 20 20 19 18 17 16
47 46 45 44 43 42 42 41 39 39 39 41 41 42 43 40 37 33 30 29 30 31 32 36 37 38 39 38 37 38 37 36 36 35 33 32 33 33 33 31 26 23 23 22 23 23 21 20 21 20 21 22 22 23 23 22 20 20 22 24 25 27 27 26 25 25 25 22 21 21 22 25 29 29 27 24 22 21 20 19 20 19 17 16 16
40 39 39 39 39 38 38 36 36 37 39 41 41 41 38 34 32 31 32 33 33 36 38 38 38 38 38 37 36 37 36 35 35 33 33 33 33 33 32 29 25 23 23 23 25 24 22 22 23 23 22 24 25 24 24 23 21 21 23 25 26 27 28 27 26 26 25 22 20 18 20 24 28 29 27 25 22 21 20 19 18 17 16 15 15
33 34 36 39 39 38 36 35 36 38 42 45 41 38 38 36 33 31 35 38 38 41 44 41 38 37 37 36 36 35 36 36 35 35 36 36 33 33 32 29 25 24 25 26 26 25 24 24 25 26 25 26 26 26 26 25 22 22 24 26 27 28 29 28 27 27 26 24 19 16 18 23 27 30 29 25 23 21 20 18 17 16 14 14 14
39 39 39 38 36 36 35 37 41 43 45 44 38 37 39 40 37 37 41 44 43 43 46 46 42 39 38 37 37 37 37 36 36 37 39 38 35 34 33 29 27 27 29 30 29 28 28 27 27 27 27 28 27 26 26 25 23 23 24 26 28 30 31 29 28 28 27 24 16 13 17 22 27 30 29 26 22 21 19 18 16 15 14 14 14
42 42 41 39 38 38 37 39 43 43 42 42 42 44 44 41 40 41 42 45 45 44 45 49 47 44 40 39 40 40 39 37 38 39 39 39 37 35 33 31 30 31 32 32 31 30 30 29 28 27 29 29 27 25 24 23 23 24 24 26 28 30 31 29 27 28 27 22 14 13 18 22 27 31 30 26 23 21 20 18 16 15 14 14 14
41 42 42 42 43 40 37 39 39 37 37 42 45 47 49 47 45 43 42 44 45 45 46 49 50 47 43 43 44 41 40 40 40 40 41 40 38 36 34 33 33 33 34 33 32 31 30 29 27 27 28 29 27 23 22 24 25 26 26 27 29 30 30 28 28 28 27 22 16 16 20 22 27 31 30 28 26 22 20 18 15 14 13 13 13
37 39 39 40 42 39 37 40 39 36 38 43 45 46 48 51 53 50 49 49 47 46 47 49 50 49 47 48 48 44 41 42 41 41 41 40 38 37 36 35 36 35 35 34 33 31 29 27 27 28 28 28 26 23 23 26 28 28 28 29 29 29 29 28 28 28 27 22 19 19 21 22 26 30 30 29 28 24 21 18 15 13 12 12 12
38 39 39 39 42 41 40 43 42 41 43 45 45 46 49 52 55 56 56 56 52 49 47 48 50 51 50 49 49 47 44 43 43 41 39 39 37 37 37 38 38 37 35 34 33 32 30 28 28 28 28 28 26 25 26 27 29 30 30 30 29 29 28 26 27 30 28 23 20 21 20 21 26 28 29 30 29 26 23 20 17 14 12 11 11
47 46 47 45 42 43 43 43 42 43 47 48 47 49 51 52 54 58 60 61 56 51 48 48 49 50 50 49 48 48 46 45 43 41 39 38 37 37 39 40 39 38 36 35 34 34 33 31 30 28 27 28 28 28 29 29 30 31 31 31 30 29 28 26 26 29 28 24 23 21 19 22 26 27 28 30 30 27 25 23 21 17 13 12 10
50 50 54 52 47 47 45 42 41 42 48 51 50 51 52 54 56 59 59 60 57 51 49 48 48 48 48 49 50 49 48 46 44 42 40 38 38 39 40 40 39 39 37 36 35 36 35 34 32 29 28 29 30 31 31 31 30 32 33 31 31 31 30 27 27 28 26 25 24 20 19 22 26 27 27 29 31 29 27 26 24 20 16 13 10
50 50 53 52 52 53 49 43 41 42 48 52 52 53 57 59 58 56 58 59 55 50 48 47 46 45 45 47 49 49 48 45 43 43 42 41 40 41 42 41 41 40 39 37 37 37 36 34 32 30 30 31 32 32 32 31 31 33 33 32 32 33 30 27 27 27 26 25 23 20 20 23 26 27 27 29 32 31 28 27 26 23 19 15 11
51 50 49 49 51 51 48 42 39 43 49 51 52 55 59 60 57 57 60 57 50 47 48 48 47 46 46 46 47 47 45 43 42 43 43 43 42 42 42 42 41 40 39 37 36 36 35 33 31 30 32 33 33 32 32 32 33 34 34 33 33 32 29 26 26 27 26 24 22 21 22 24 26 27 27 30 33 32 29 28 27 25 21 17 14
53 50 48 47 47 47 44 41 41 46 51 52 53 57 57 54 53 55 57 52 46 47 49 49 50 49 48 46 45 44 43 42 42 43 42 43 43 42 42 42 41 41 39 37 36 34 33 33 32 33 35 35 33 32 33 34 34 35 34 33 32 31 28 26 26 25 25 24 22 23 24 24 25 26 27 31 33 31 29 28 28 26 21 17 15
54 51 50 48 49 47 39 37 44 48 52 54 54 53 51 49 50 50 51 49 49 52 52 51 50 50 48 47 45 44 43 43 44 44 43 43 44 44 43 43 43 42 40 38 36 34 34 35 35 37 38 36 34 34 35 35 34 33 33 32 31 30 28 27 26 25 24 23 24 25 24 23 25 27 29 32 32 30 28 27 28 26 22 18 16
57 54 53 51 52 45 31 34 45 48 51 51 48 47 46 46 46 47 48 51 54 56 54 51 49 48 47 47 47 45 44 45 45 46 45 45 46 45 44 43 43 42 41 40 39 36 36 36 36 37 38 36 35 34 35 33 32 32 32 31 30 30 28 27 26 24 24 24 24 24 22 23 25 27 30 32 31 29 27 27 28 26 23 21 19
59 58 55 53 52 41 29 36 47 49 50 48 46 47 46 45 45 46 49 52 56 56 52 50 48 47 47 47 48 48 47 47 47 48 47 47 46 46 44 42 42 42 41 41 40 38 37 36 35 35 35 35 33 33 33 31 30 30 31 30 30 29 27 27 26 24 25 25 24 22 22 23 26 28 30 32 32 28 26 26 27 26 24 23 21
62 60 57 54 52 43 34 36 44 48 48 47 46 46 47 48 47 48 50 53 55 54 51 50 49 49 50 50 50 51 51 49 49 48 47 46 45 45 44 42 41 41 41 39 37 37 38 36 34 33 33 33 32 31 31 30 30 30 30 30 30 28 28 29 26 26 27 25 23 22 22 24 27 29 31 33 33 28 26 26 27 27 25 24 22
62 61 59 57 55 51 46 41 39 42 44 45 45 44 45 47 48 50 52 55 55 52 51 51 52 52 51 51 50 50 51 50 48 44 40 41 43 44 44 42 41 41 41 38 36 35 34 32 30 31 32 32 31 31 30 30 30 30 30 31 30 28 29 30 27 26 26 24 23 23 23 25 28 31 34 36 33 29 27 27 27 27 26 25 23
60 60 60 60 60 59 57 50 39 36 40 43 45 46 47 50 53 55 56 56 54 53 52 51 51 49 48 47 44 44 46 47 44 39 36 38 42 44 43 42 42 41 39 37 34 32 31 30 30 32 33 33 32 31 31 31 31 31 31 31 30 29 30 29 26 25 25 24 24 24 25 28 31 34 37 36 32 28 27 28 27 26 25 25 24
59 60 60 61 63 64 65 62 53 46 42 42 44 48 51 54 56 56 54 53 52 50 48 45 44 44 43 43 42 42 43 43 41 39 39 41 43 44 43 41 42 41 38 35 33 34 33 32 32 33 32 32 32 32 32 32 31 31 31 31 30 30 30 29 26 25 24 25 26 27 28 31 34 38 39 35 31 29 28 28 27 25 25 25 24
58 60 61 61 62 65 69 71 70 67 61 54 51 51 54 54 53 52 49 47 47 44 41 40 41 42 41 41 41 41 42 41 39 39 41 42 44 44 42 40 40 41 39 36 33 31 30 29 30 33 33 32 33 32 32 31 30 29 29 29 29 30 30 29 27 25 26 27 28 29 32 34 38 40 39 35 31 29 29 28 26 25 25 25 24
58 60 61 61 61 64 69 72 74 74 72 67 60 57 56 50 47 47 45 44 43 41 40 40 40 40 40 39 39 38 37 37 35 36 39 41 42 42 41 40 39 39 40 38 33 29 27 29 32 35 36 36 35 33 32 31 30 29 28 28 29 30 30 30 29 28 29 31 31 32 35 39 41 42 40 36 32 31 30 27 24 24 25 25 24
57 58 58 60 60 61 66 70 70 68 67 65 59 56 53 48 44 44 43 45 46 44 42 40 39 39 39 38 38 37 35 36 38 38 39 41 42 41 41 40 39 38 39 39 37 32 29 31 35 38 39 39 37 35 34 33 32 31 30 30 30 30 31 32 31 31 33 34 34 36 39 43 44 43 40 36 33 30 27 24 23 24 25 26 25
55 56 55 57 58 60 63 66 67 64 61 59 53 49 48 47 46 45 45 45 43 43 40 38 38 37 36 36 37 38 36 36 41 42 43 45 45 44 43 41 39 38 37 38 39 37 34 35 38 41 42 41 40 39 37 36 35 34 33 33 32 32 33 34 35 35 35 36 37 39 43 46 46 43 40 37 33 29 24 23 24 25 26 27 26
54 54 53 55 57 59 61 64 65 63 59 56 51 46 43 43 42 41 43 42 37 36 36 35 36 35 33 33 35 37 38 37 39 41 43 46 48 48 45 43 42 40 38 38 39 40 40 40 41 42 44 44 42 41 40 38 38 37 36 35 35 35 35 36 37 37 38 39 41 44 47 48 45 43 40 36 32 28 26 25 26 27 28 28 27
52 53 53 53 56 58 60 62 64 64 60 55 51 47 41 37 37 35 37 40 37 35 34 34 35 34 31 29 30 33 36 38 39 41 42 44 46 48 47 45 43 41 39 39 40 41 41 41 42 44 46 46 43 41 39 39 39 38 38 38 38 39 39 40 40 40 41 42 44 46 47 45 41 39 37 34 31 29 28 28 28 29 30 29 28
50 52 53 53 55 57 59 61 63 64 62 57 52 48 43 38 37 37 36 39 40 39 37 36 35 35 32 29 31 35 37 37 39 41 43 45 46 46 46 47 45 43 41 41 42 42 41 42 42 45 46 45 42 40 39 40 41 41 41 42 42 42 42 42 42 41 42 43 46 47 44 40 37 36 34 32 30 28 28 28 29 29 29 28 27
46 49 52 53 55 56 58 59 61 63 63 59 53 46 42 40 41 41 40 41 43 43 42 41 39 38 38 36 40 43 40 37 38 39 42 46 49 49 49 49 48 47 47 47 46 46 46 46 46 46 46 44 43 42 42 42 43 44 44 44 44 43 42 41 41 41 43 46 47 45 41 38 37 35 33 31 29 27 27 28 28 27 26 25 24
41 45 50 54 55 55 57 58 59 60 60 59 56 47 40 41 44 44 44 45 46 46 47 46 45 45 46 46 49 48 42 40 41 41 41 44 49 53 54 53 50 48 49 50 50 49 50 50 50 48 47 46 45 45 44 43 43 43 44 44 45 45 43 43 43 44 47 48 46 43 39 38 37 35 34 32 29 28 28 28 27 25 24 24 24
31 36 45 51 55 56 56 57 56 56 57 57 58 54 46 44 47 49 51 51 50 51 50 47 45 46 48 50 51 50 47 45 44 42 43 44 47 50 53 53 51 49 49 49 49 49 50 50 50 49 48 48 47 47 46 45 43 43 43 45 45 45 44 44 46 48 49 48 45 42 40 38 37 36 35 32 30 28 28 28 27 26 26 25 25
27 32 41 47 53 58 55 50 46 46 50 54 58 62 60 58 59 60 60 58 57 56 50 42 39 40 43 46 49 50 50 48 44 42 43 44 45 47 48 51 51 50 50 49 48 48 48 48 48 47 47 46 46 46 45 43 43 42 42 43 43 44 45 47 49 50 49 47 45 42 40 38 37 36 35 33 30 29 29 29 28 27 26 26 27
Wind_Direction
280 283 285 285 286 287 288 289 290 291 292 291 291 291 291 291 291 292 293 293 294 294 292 291 292 293 294 295 295 295 295 296 297 298 299 299 300 301 301 301 302 302 303 303 303 303 303 303 304 305 305 305 306 306 306 306 306 307 308 308 308 307 306 305 308 311 315 322 314 309 310 307 309 310 311 313 315 315 312 306 300 293 283 272 257
281 283 284 285 285 286 287 288 289 290 290 291 291 291 291 292 293 293 293 293 294 294 293 292 293 294 295 295 294 295 295 297 298 300 300 301 301 302 302 302 302 303 303 303 303 303 303 304 305 305 306 306 306 306 305 306 307 307 308 308 307 306 305 306 308 309 310 309 303 305 309 308 310 311 312 315 316 315 310 304 298 293 286 280 267
282 283 283 285 285 286 287 288 288 289 289 290 290 291 292 293 293 293 293 294 295 295 294 294 295 295 295 295 295 296 297 299 300 301 301 301 302 302 303 303 303 303 303 303 303 303 304 304 305 306 306 306 305 305 305 306 307 307 307 307 306 304 305 308 310 309 308 306 306 310 313 312 313 313 314 316 317 314 307 301 295 292 289 286 281
282 283 284 285 285 286 286 287 287 288 288 289 290 291 292 293 293 294 294 295 295 295 295 295 295 295 295 295 296 297 298 299 300 300 301 301 302 303 303 303 302 303 303 303 303 304 304 305 306 306 306 305 304 305 305 306 306 306 306 305 304 305 308 311 311 310 309 309 312 315 317 317 317 316 318 318 317 312 305 299 295 293 293 291 289
282 283 284 284 285 285 285 286 286 287 287 288 289 290 291 293 293 294 294 294 294 294 294 294 294 294 294 295 296 297 297 298 299 300 301 302 302 302 302 302 302 303 303 304 304 305 305 305 306 306 305 304 304 304 305 305 305 305 304 303 304 307 311 312 310 310 310 311 315 318 321 321 320 319 320 320 316 310 302 298 297 296 296 295 295
279 281 282 282 283 283 284 285 285 286 286 287 289 290 291 292 293 293 292 292 292 292 292 292 293 293 293 295 296 296 297 298 299 300 300 301 301 302 302 302 302 303 304 304 305 305 305 305 305 305 304 304 303 304 304 304 304 303 302 303 305 309 313 311 309 309 310 314 318 321 323 324 323 321 320 320 315 307 300 296 297 298 298 299 299
277 278 279 280 280 281 282 283 284 285 285 286 287 289 290 291 292 291 291 290 290 290 291 291 292 292 294 295 296 296 297 298 299 300 300 301 301 301 302 302 303 304 304 304 304 304 305 305 305 304 303 303 302 303 303 303 302 301 301 303 307 311 313 310 309 309 311 315 319 322 326 327 325 322 321 320 315 307 300 296 297 298 298 299 299
275 276 278 279 280 281 282 283 284 284 284 285 286 288 289 290 290 290 289 289 290 290 290 291 292 293 294 295 296 297 297 299 299 300 301 302 302 302 302 302 303 303 304 304 304 304 305 304 304 303 302 302 301 301 302 301 300 300 302 304 309 313 312 310 309 309 312 316 320 324 328 329 328 324 320 317 313 307 302 299 299 299 299 299 300
273 274 276 278 279 281 282 283 284 285 285 285 286 287 287 287 288 288 288 289 290 291 291 292 293 294 295 295 297 298 299 300 301 301 302 302 302 302 302 302 303 303 303 303 303 304 304 303 302 302 301 300 300 300 301 300 300 301 304 307 312 313 312 310 309 310 313 316 320 325 331 333 331 325 318 313 310 307 303 302 302 302 301 302 302
272 273 275 276 278 280 281 283 284 285 285 285 285 285 285 286 287 288 288 289 291 292 293 294 294 295 296 297 298 299 300 301 301 301 302 302 302 302 303 303 303 302 302 302 303 303 303 302 301 300 299 298 298 300 299 299 300 303 306 310 313 313 312 311 309 310 313 316 321 328 335 337 334 327 319 312 308 306 304 303 304 304 304 304 304
273 274 275 276 277 279 280 282 284 284 284 284 284 284 285 285 287 288 289 290 292 293 294 295 296 297 298 299 300 300 301 301 301 301 302 302 302 303 303 303 303 302 302 302 302 302 302 300 299 298 296 296 297 298 299 300 303 306 309 312 313 312 312 312 311 310 313 317 322 328 335 339 337 331 323 315 309 305 303 302 303 304 304 304 304
273 274 275 276 277 279 280 282 283 283 283 284 284 285 286 287 288 289 290 292 294 295 296 296 297 298 299 299 300 300 300 301 301 301 302 302 302 303 303 302 302 302 302 302 301 301 301 298 297 295 293 294 296 297 298 301 306 310 312 312 312 313 314 314 312 311 313 316 319 323 330 338 340 336 327 318 310 305 302 301 301 303 304 304 304
273 274 275 277 278 279 280 281 282 282 283 284 286 287 288 289 290 291 292 293 295 296 296 296 297 297 298 299 300 300 300 301 301 301 302 303 304 304 303 301 301 301 301 300 300 300 299 296 293 291 291 294 295 296 298 303 310 313 312 311 312 313 316 314 312 311 312 313 315 319 325 334 339 338 330 319 312 306 302 300 300 302 303 304 305
274 276 277 278 279 280 281 281 282 282 284 285 287 289 291 292 293 293 294 294 295 296 297 298 298 299 299 300 301 301 301 300 300 300 301 303 304 304 302 300 300 300 300 300 300 299 296 292 289 287 291 294 293 296 299 305 311 313 311 310 311 314 317 317 315 314 312 313 315 317 320 326 333 335 331 321 312 306 302 300 299 301 303 305 307
276 276 278 279 280 281 282 282 283 284 285 286 287 289 292 294 295 296 296 296 296 296 298 299 300 300 301 302 302 302 300 299 299 299 301 303 303 303 301 299 299 299 299 299 298 296 293 287 284 287 293 295 294 296 299 307 311 311 310 310 310 316 320 320 319 316 313 313 314 316 317 321 327 330 329 322 313 307 303 301 299 300 302 305 308
276 277 278 279 280 282 283 283 284 285 286 287 288 290 293 295 297 297 298 297 298 298 299 300 301 302 302 302 301 300 299 298 298 298 300 301 302 302 300 299 299 299 298 297 296 293 288 284 284 287 293 296 296 295 301 310 312 311 311 310 311 317 322 322 321 318 315 313 315 318 318 320 325 328 328 324 316 309 304 301 299 299 301 305 309
276 277 278 280 281 282 283 283 284 285 287 288 290 292 295 298 299 299 299 299 300 302 302 301 302 303 302 302 302 301 300 299 299 299 300 301 301 301 298 297 298 297 297 295 292 287 281 284 288 289 291 294 295 294 303 312 313 312 311 310 312 318 323 323 321 320 317 316 318 320 320 322 327 329 329 325 319 313 307 303 300 300 302 305 309
276 277 279 281 282 282 282 283 284 286 288 290 292 294 297 299 299 299 300 300 302 303 303 303 305 307 309 310 309 307 305 304 302 302 302 302 301 299 296 295 296 295 294 291 285 277 276 287 293 293 290 290 291 291 304 314 312 312 312 312 313 319 324 323 321 321 320 319 321 322 323 326 329 331 329 326 321 317 311 306 303 302 303 307 308
276 278 279 280 282 282 283 284 286 288 291 294 294 295 296 297 298 301 302 302 304 305 304 306 310 313 315 317 316 314 311 308 305 305 304 302 300 297 294 293 295 293 290 286 278 274 280 292 297 296 290 287 286 290 305 313 310 311 314 315 316 320 324 323 322 323 323 321 322 324 325 329 331 331 329 327 323 319 314 309 304 303 304 307 306
276 277 278 281 283 285 286 288 289 292 295 295 295 294 295 297 300 303 305 307 308 306 303 306 308 309 312 314 315 316 315 310 308 307 305 301 299 297 294 293 293 290 285 281 278 279 285 292 298 298 292 286 284 291 306 311 308 311 316 317 318 323 325 322 321 324 325 323 324 325 327 330 333 332 329 328 327 322 317 311 305 303 304 305 303
276 278 280 282 283 286 288 291 295 298 298 296 295 294 294 299 300 300 303 307 306 304 302 303 304 305 308 309 310 312 313 312 309 308 304 301 299 296 292 292 290 285 280 278 280 284 286 288 293 299 294 286 285 293 306 310 306 309 315 318 320 324 325 321 320 322 324 324 324 326 328 332 335 335 331 328 328 326 321 313 307 304 304 303 301
278 279 280 280 282 287 289 292 296 298 296 297 296 292 293 298 297 296 301 303 300 301 302 302 302 302 303 305 306 308 309 310 309 305 303 301 297 292 290 289 286 281 277 278 282 284 284 285 289 296 295 288 287 291 302 306 303 306 313 317 320 323 323 320 318 319 321 322 322 325 329 334 338 339 335 328 325 326 325 317 310 306 305 304 303
276 277 280 280 281 284 286 288 290 290 292 296 294 288 291 294 292 291 297 299 296 296 298 297 298 298 298 299 300 303 306 307 306 304 302 299 294 289 288 286 282 279 281 283 284 283 282 284 286 290 293 291 289 289 296 301 299 304 313 318 319 321 322 321 318 317 320 320 321 325 330 335 341 342 338 331 325 323 324 320 311 307 308 309 307
275 277 281 279 277 279 282 286 286 286 288 291 291 289 290 290 287 287 291 293 292 292 292 290 291 294 293 294 295 298 302 303 303 302 303 300 292 286 285 284 282 282 286 287 286 283 282 286 286 286 289 291 290 290 293 295 294 301 312 318 318 318 321 322 318 317 321 322 321 325 331 338 345 346 341 334 328 323 323 320 311 307 311 314 311
277 278 279 274 274 279 282 286 287 284 283 286 288 289 289 288 286 286 288 289 289 288 287 286 286 288 289 290 292 294 297 299 299 299 302 302 293 283 281 281 282 285 288 288 285 283 284 287 287 286 288 290 290 290 290 290 293 300 310 317 317 318 322 321 316 317 321 323 320 325 331 338 345 349 346 339 333 327 325 322 311 306 311 314 311
276 280 279 275 274 277 282 284 284 281 281 286 285 284 286 287 287 286 287 288 288 286 286 285 284 284 285 287 290 291 294 295 295 296 299 302 293 281 277 278 281 286 287 285 282 281 283 286 287 288 288 289 289 287 286 289 295 301 309 315 318 318 320 319 314 316 322 321 315 321 328 335 343 349 348 343 338 333 330 328 317 307 307 309 307
274 279 277 275 273 272 276 276 276 277 281 288 286 282 283 285 287 286 287 289 287 285 285 283 281 281 281 284 286 287 290 292 292 293 296 299 294 282 276 277 282 285 286 283 279 278 279 282 286 288 287 288 287 282 282 288 296 303 309 315 317 318 319 317 314 315 322 324 319 322 327 335 343 348 350 347 343 339 336 335 328 317 309 305 303
268 272 272 274 271 270 273 271 274 278 280 285 284 282 283 283 284 285 287 289 286 285 284 282 280 279 280 282 284 285 287 289 290 290 293 295 292 283 279 280 283 284 284 281 277 275 276 281 284 286 285 285 282 278 280 286 296 304 309 314 316 318 318 316 314 315 321 328 331 330 332 338 343 347 351 351 348 345 345 344 339 328 316 305 302
266 272 273 273 273 274 276 272 274 281 282 283 280 277 280 281 283 286 288 288 284 283 283 282 280 279 278 279 282 284 286 287 287 288 290 291 287 282 281 282 282 282 282 280 277 275 275 280 284 284 284 282 277 274 276 283 296 305 309 312 314 316 317 315 314 316 320 329 334 334 336 340 342 346 350 351 350 348 348 349 346 335 320 307 301
267 272 274 274 276 278 277 272 272 278 279 281 279 276 278 283 286 287 289 288 284 282 282 283 281 279 278 278 279 281 283 286 285 284 286 287 283 280 281 282 281 280 280 279 277 275 276 279 282 284 282 278 274 273 275 283 295 304 308 310 311 314 316 314 315 316 319 326 329 330 333 338 341 345 347 348 348 346 344 345 346 339 324 308 301
264 268 272 273 275 277 279 276 272 272 274 277 279 280 283 286 286 286 289 290 288 283 281 282 281 280 280 278 277 277 280 284 283 281 283 284 283 281 281 282 280 280 280 280 277 275 276 279 281 282 279 275 274 275 277 283 294 301 306 308 309 311 313 312 314 315 317 321 323 322 329 337 340 342 344 344 345 344 340 338 340 338 328 314 303
261 264 268 270 273 277 281 279 270 267 269 274 279 284 287 287 284 284 287 289 289 286 283 283 282 281 281 279 277 277 278 279 278 278 280 281 281 281 281 281 280 280 281 280 278 277 278 279 281 279 275 273 275 277 278 282 290 297 302 305 306 308 310 310 312 314 315 317 315 316 327 336 337 338 341 341 341 340 336 333 334 334 329 319 307
259 260 261 265 268 272 279 276 267 266 268 274 282 286 288 286 284 283 284 284 286 289 289 286 283 281 281 280 279 278 276 274 274 277 279 280 280 280 281 281 279 279 281 281 280 280 280 279 278 274 271 272 274 276 278 280 285 292 298 302 303 307 308 308 311 312 312 311 309 314 325 332 333 335 337 338 338 336 332 329 329 329 327 320 307
256 256 254 257 260 266 278 272 264 268 271 277 282 283 285 284 282 281 280 279 282 290 292 288 285 282 281 280 279 277 274 272 271 274 279 280 280 280 280 279 279 279 280 281 280 279 278 277 273 270 270 272 274 276 278 279 283 291 297 300 302 305 305 307 309 310 309 305 306 314 323 327 328 331 334 335 335 333 328 325 326 326 325 319 310
254 253 253 256 257 262 273 264 262 268 270 274 276 277 282 284 283 280 279 280 286 293 293 289 285 282 282 281 279 276 273 270 269 271 275 279 281 281 279 278 278 279 279 279 278 276 275 274 272 271 271 271 273 275 276 278 284 292 298 299 301 302 302 304 306 306 306 303 306 314 318 321 324 328 330 330 331 329 324 322 323 323 323 319 313
253 253 253 255 256 256 256 258 263 267 269 271 271 272 276 281 285 286 287 289 293 296 293 288 285 284 284 283 280 277 276 272 270 270 272 277 280 278 276 276 277 279 280 279 276 274 272 273 274 273 271 271 272 274 276 281 287 294 298 298 298 299 298 300 300 299 303 304 308 314 314 316 321 324 326 326 325 324 321 319 320 320 320 318 313
253 253 253 253 253 249 242 251 261 264 268 269 269 271 271 275 283 290 293 295 296 294 290 288 288 288 287 285 282 278 277 276 274 274 272 274 275 274 274 275 278 280 280 278 274 272 271 273 274 272 271 272 274 276 280 286 291 295 297 296 296 295 294 296 295 296 301 305 307 310 310 312 316 318 320 321 320 318 317 317 317 318 317 315 312
253 252 251 249 249 245 238 242 253 261 268 269 268 270 272 276 284 290 293 293 292 289 289 290 291 291 288 285 283 279 277 277 276 275 271 270 269 270 272 275 278 280 280 277 275 273 272 273 273 272 273 274 277 280 284 289 293 296 296 294 293 290 290 294 295 296 300 301 302 304 305 308 310 311 313 315 315 313 313 314 314 314 313 310 309
253 251 249 245 244 243 239 239 246 257 265 266 265 269 275 280 284 288 290 288 286 286 289 291 291 290 285 281 279 277 277 276 274 270 265 265 269 272 273 276 277 278 279 278 274 271 269 271 272 273 275 276 279 282 286 290 294 295 295 293 292 289 289 292 294 295 294 294 296 298 299 302 304 307 309 311 311 309 308 310 309 309 309 308 306
252 250 248 244 241 241 239 239 244 253 259 262 264 268 274 279 280 282 284 282 282 285 288 290 290 289 284 277 274 272 272 273 271 265 261 262 268 274 275 274 275 274 277 276 273 273 274 277 278 278 278 277 279 282 286 291 292 291 291 290 289 288 287 289 291 290 288 288 291 294 296 299 301 305 308 309 307 304 303 304 303 302 306 306 302
251 249 247 244 241 241 241 242 245 250 256 260 265 270 273 276 275 275 276 277 280 284 286 290 292 290 287 281 275 273 271 269 266 261 262 265 267 271 272 272 273 273 274 273 270 274 279 280 279 279 279 278 279 283 287 289 288 287 287 286 285 284 283 285 285 283 282 285 288 292 294 296 300 304 307 307 302 298 298 299 296 297 302 303 299
250 248 247 245 243 241 242 245 247 250 254 257 263 268 269 270 270 271 272 275 281 283 284 290 294 291 289 283 278 276 270 264 260 258 262 267 270 271 272 272 272 272 273 271 266 265 269 270 271 273 275 276 277 282 287 287 286 285 285 283 283 281 280 280 278 275 277 281 284 287 290 295 300 304 305 303 299 295 294 294 293 296 301 300 297
251 249 248 247 245 242 242 245 249 251 252 254 259 265 266 267 268 269 271 276 280 280 281 288 294 293 289 284 279 276 269 259 256 259 261 263 267 271 273 274 273 271 270 268 262 258 259 262 265 268 270 273 275 279 283 284 284 285 284 283 283 281 278 275 272 272 274 278 281 285 290 297 301 302 301 299 297 294 293 293 295 299 301 299 297
253 251 249 248 246 243 242 243 246 249 250 250 254 261 267 268 267 268 272 276 276 275 278 286 293 295 289 286 283 277 272 264 260 262 262 261 262 266 270 271 271 270 269 266 262 260 258 257 260 264 267 270 274 278 280 280 282 284 284 283 283 281 276 271 270 272 274 277 281 287 294 299 300 298 297 296 294 292 292 294 297 299 300 299 296
254 253 250 248 246 244 241 242 243 244 245 246 248 256 265 266 265 268 270 273 275 276 279 284 291 295 291 289 289 282 277 271 266 263 262 262 261 262 266 267 267 269 268 265 263 263 263 261 263 265 267 269 273 277 278 277 280 282 284 283 282 280 276 271 271 272 275 279 284 289 295 298 296 295 294 293 291 290 289 291 293 296 298 297 293
254 253 250 247 246 245 242 240 241 242 242 242 244 252 259 257 259 264 266 269 275 280 284 286 289 292 290 291 294 291 284 277 271 265 260 261 261 262 263 263 265 266 265 263 262 264 265 264 265 265 267 270 273 276 277 278 280 281 282 282 282 281 278 274 274 276 279 283 287 291 295 296 294 294 293 292 291 291 290 291 292 294 295 294 290
253 252 250 248 245 245 243 240 239 240 241 241 243 252 256 251 253 258 261 266 272 278 282 284 286 288 288 290 295 297 293 284 278 271 264 260 260 261 260 260 261 262 262 261 261 263 264 264 265 266 267 269 271 273 275 276 278 279 280 281 282 282 279 276 277 279 282 285 289 293 295 294 293 291 289 290 293 294 293 294 294 294 294 292 291
254 252 251 249 246 244 243 242 241 239 241 241 241 251 258 252 252 257 259 266 273 277 278 279 281 283 284 285 289 294 293 287 282 277 270 264 260 259 259 260 261 261 262 262 262 262 264 266 269 270 269 269 271 273 273 274 275 277 279 280 281 280 277 276 278 280 284 289 293 295 295 293 291 287 284 287 290 292 294 295 295 294 293 292 292
259 257 253 250 248 245 242 243 243 241 242 240 240 250 261 259 259 263 266 271 276 279 280 280 279 278 279 280 284 289 289 287 283 277 271 266 262 259 259 261 262 263 263 264 265 264 264 266 269 271 271 271 274 275 275 276 277 279 280 279 278 275 273 274 277 281 287 292 295 296 294 291 288 284 282 283 284 286 291 292 291 291 289 289 289
271 270 263 255 250 246 242 242 245 247 247 243 240 248 258 263 266 270 272 275 279 282 284 284 282 279 279 279 281 284 286 287 285 277 270 266 264 262 260 260 262 262 261 262 264 265 266 267 268 270 270 271 274 275 277 279 280 280 278 277 275 273 274 277 280 285 290 293 295 295 292 288 284 282 281 281 280 282 286 287 287 287 287 288 287
260 264 264 259 253 248 241 240 247 251 252 249 246 250 258 265 270 273 275 277 278 280 281 284 287 286 284 281 279 280 282 284 285 279 271 265 263 263 261 260 260 260 260 261 262 263 265 266 267 269 270 272 274 275 276 277 277 276 274 274 275 276 279 283 287 290 292 293 293 292 288 284 282 280 279 279 278 278 281 285 288 289 290 290 289
Height
10901 10900 10899 10899 10899 10899 10898 10898 10897 10895 10895 10895 10895 10894 10894 10894 10893 10891 10890 10888 10887 10887 10886 10884 10883 10881 10880 10878 10877 10875 10873 10872 10870 10868 10865 10863 10860 10858 10855 10852 10850 10847 10845 10842 10839 10836 10833 10831 10829 10826 10823 10820 10817 10814 10811 10809 10807 10805 10804 10802 10801 10799 10797 10795 10794 10793 10792 10792 10791 10790 10789 10784 10780 10777 10775 10772 10770 10769 10769 10768 10768 10768 10768 10768 10768
10898 10896 10895 10895 10895 10894 10894 10894 10893 10892 10891 10891 10891 10891 10891 10890 10889 10888 10886 10884 10883 10883 10882 10881 10879 10877 10876 10874 10873 10871 10870 10868 10866 10864 10861 10858 10856 10853 10851 10848 10845 10843 10840 10838 10835 10831 10829 10826 10824 10822 10819 10816 10813 10810 10807 10805 10802 10801 10799 10799 10797 10796 10795 10793 10792 10792 10791 10791 10790 10789 10787 10783 10779 10777 10774 10771 10769 10768 10767 10767 10767 10767 10767 10767 10767
10893 10890 10891 10891 10890 10890 10890 10889 10888 10888 10888 10888 10888 10888 10887 10887 10885 10884 10882 10880 10879 10878 10878 10877 10875 10874 10872 10870 10869 10867 10865 10863 10861 10859 10857 10854 10851 10849 10846 10844 10841 10838 10836 10833 10830 10827 10824 10822 10820 10818 10816 10813 10810 10807 10804 10802 10799 10797 10796 10795 10794 10793 10792 10791 10790 10789 10789 10788 10787 10785 10784 10780 10777 10775 10772 10770 10768 10767 10766 10766 10765 10765 10765 10765 10765
10888 10886 10887 10887 10885 10885 10885 10885 10884 10884 10884 10885 10885 10884 10884 10883 10882 10880 10878 10877 10875 10874 10874 10873 10871 10869 10868 10866 10865 10863 10861 10859 10857 10855 10853 10850 10847 10844 10842 10839 10836 10834 10831 10829 10825 10823 10820 10818 10816 10814 10812 10809 10806 10803 10801 10799 10797 10794 10793 10792 10791 10790 10789 10788 10787 10786 10785 10784 10783 10782 10780 10777 10775 10772 10770 10768 10767 10766 10765 10765 10764 10764 10764 10764 10764
10884 10882 10882 10882 10881 10881 10881 10881 10880 10881 10881 10881 10882 10881 10880 10879 10878 10876 10874 10873 10872 10870 10869 10868 10867 10865 10864 10862 10861 10859 10857 10855 10854 10852 10849 10846 10843 10840 10837 10834 10831 10829 10827 10824 10821 10819 10816 10814 10812 10810 10808 10805 10802 10800 10798 10796 10794 10792 10791 10790 10789 10788 10787 10786 10784 10783 10783 10782 10781 10779 10777 10775 10772 10770 10768 10767 10766 10765 10764 10764 10763 10763 10762 10762 10762
10880 10879 10878 10878 10877 10877 10877 10877 10877 10877 10877 10878 10878 10878 10877 10876 10874 10872 10870 10869 10868 10866 10865 10864 10862 10861 10860 10859 10857 10856 10854 10852 10850 10848 10845 10842 10839 10836 10833 10830 10827 10824 10822 10819 10817 10815 10813 10811 10809 10807 10804 10802 10799 10797 10795 10793 10792 10790 10789 10788 10787 10786 10785 10784 10783 10782 10781 10780 10779 10777 10775 10773 10770 10768 10767 10766 10765 10764 10763 10763 10762 10761 10761 10760 10760
10877 10876 10874 10874 10873 10873 10873 10873 10873 10873 10874 10874 10875 10874 10873 10872 10870 10867 10866 10865 10863 10862 10861 10860 10858 10856 10856 10855 10854 10852 10850 10849 10847 10843 10840 10838 10835 10832 10829 10826 10823 10820 10818 10815 10813 10811 10809 10807 10805 10803 10801 10799 10796 10794 10793 10791 10789 10788 10787 10786 10785 10785 10784 10782 10781 10780 10780 10778 10777 10775 10773 10771 10769 10767 10765 10764 10763 10763 10762 10762 10761 10761 10760 10759 10759
10873 10872 10870 10870 10869 10869 10870 10870 10870 10870 10870 10871 10871 10870 10870 10868 10866 10864 10861 10860 10859 10858 10857 10856 10854 10852 10852 10851 10850 10848 10847 10845 10843 10839 10836 10833 10831 10828 10825 10822 10819 10816 10814 10811 10809 10807 10806 10804 10802 10799 10797 10795 10794 10792 10791 10789 10787 10786 10785 10784 10784 10783 10782 10781 10780 10779 10778 10777 10775 10773 10771 10770 10768 10766 10764 10763 10762 10761 10761 10761 10760 10759 10759 10758 10758
10869 10867 10866 10866 10866 10866 10866 10866 10866 10867 10867 10867 10867 10866 10866 10865 10863 10860 10858 10856 10854 10854 10853 10852 10850 10849 10848 10847 10846 10845 10843 10841 10838 10834 10832 10829 10827 10824 10822 10819 10816 10813 10810 10808 10806 10804 10802 10800 10798 10796 10794 10792 10791 10790 10789 10788 10786 10784 10783 10782 10782 10782 10781 10780 10779 10778 10777 10775 10773 10771 10769 10767 10766 10765 10763 10762 10761 10760 10760 10759 10758 10758 10757 10756 10756
10864 10863 10863 10862 10862 10862 10862 10863 10864 10864 10864 10863 10863 10862 10861 10860 10859 10857 10854 10852 10850 10849 10849 10847 10846 10845 10844 10843 10842 10841 10839 10837 10834 10830 10828 10825 10822 10820 10818 10815 10812 10809 10807 10804 10802 10801 10799 10797 10795 10793 10791 10790 10789 10788 10787 10786 10785 10783 10782 10781 10781 10780 10780 10779 10778 10777 10775 10773 10771 10769 10768 10766 10764 10763 10762 10761 10760 10759 10758 10757 10757 10756 10755 10754 10754
10858 10858 10858 10858 10858 10859 10859 10860 10861 10861 10860 10860 10859 10858 10857 10856 10854 10853 10851 10849 10846 10845 10844 10843 10842 10841 10841 10840 10838 10837 10835 10833 10829 10826 10824 10821 10818 10816 10814 10811 10809 10806 10803 10801 10799 10798 10796 10794 10792 10790 10788 10787 10787 10786 10785 10784 10784 10782 10781 10780 10779 10779 10778 10777 10776 10775 10773 10771 10770 10768 10766 10765 10763 10761 10760 10759 10758 10757 10756 10756 10755 10754 10753 10753 10752
10854 10854 10854 10854 10855 10856 10857 10857 10858 10857 10857 10856 10855 10854 10853 10851 10850 10848 10847 10845 10842 10840 10839 10838 10838 10838 10837 10836 10834 10833 10831 10828 10825 10822 10819 10817 10815 10813 10810 10807 10805 10802 10800 10798 10796 10795 10793 10791 10789 10787 10786 10785 10785 10784 10784 10783 10782 10781 10780 10779 10778 10777 10776 10775 10774 10773 10772 10770 10768 10767 10765 10763 10761 10759 10758 10757 10756 10755 10755 10754 10753 10752 10752 10751 10750
10850 10850 10850 10850 10851 10852 10853 10853 10853 10853 10852 10851 10850 10849 10848 10846 10845 10843 10842 10841 10839 10836 10835 10834 10834 10833 10833 10832 10830 10828 10827 10824 10820 10818 10815 10813 10810 10809 10806 10803 10800 10799 10797 10795 10793 10792 10791 10789 10787 10785 10784 10784 10783 10783 10782 10782 10781 10780 10779 10778 10777 10776 10775 10774 10773 10772 10771 10769 10767 10765 10763 10761 10759 10758 10756 10755 10754 10753 10753 10752 10751 10751 10750 10749 10748
10846 10846 10846 10847 10848 10848 10848 10848 10848 10848 10847 10847 10846 10844 10843 10841 10840 10839 10837 10836 10834 10832 10831 10830 10829 10829 10828 10827 10826 10824 10822 10819 10816 10813 10811 10809 10807 10805 10802 10799 10797 10795 10794 10792 10790 10790 10788 10786 10785 10783 10783 10782 10782 10781 10781 10780 10780 10779 10778 10777 10776 10775 10774 10772 10771 10770 10769 10767 10765 10764 10762 10760 10758 10756 10755 10753 10752 10751 10750 10750 10749 10748 10748 10747 10746
10843 10842 10843 10843 10843 10843 10843 10843 10843 10842 10842 10841 10840 10839 10838 10837 10836 10834 10832 10831 10829 10828 10827 10826 10825 10824 10824 10823 10821 10819 10817 10814 10811 10809 10807 10805 10803 10801 10799 10796 10794 10792 10791 10789 10788 10787 10786 10785 10784 10782 10781 10781 10780 10780 10779 10779 10779 10778 10777 10776 10775 10774 10772 10771 10769 10768 10767 10765 10764 10762 10761 10759 10757 10755 10753 10751 10750 10749 10748 10748 10747 10746 10745 10745 10744
10839 10838 10839 10839 10839 10839 10838 10837 10837 10837 10836 10836 10835 10835 10834 10833 10831 10829 10827 10825 10824 10823 10823 10822 10821 10820 10819 10818 10817 10815 10812 10809 10807 10805 10803 10801 10800 10798 10795 10793 10791 10789 10788 10787 10786 10785 10785 10784 10782 10781 10780 10780 10779 10778 10779 10779 10778 10777 10775 10775 10774 10772 10771 10769 10768 10767 10765 10764 10762 10761 10759 10757 10755 10753 10751 10750 10748 10747 10746 10746 10745 10744 10744 10743 10742
10833 10833 10834 10834 10834 10833 10832 10832 10831 10831 10831 10831 10831 10830 10829 10828 10826 10824 10822 10820 10819 10818 10818 10817 10817 10816 10815 10813 10811 10809 10807 10805 10803 10801 10800 10798 10797 10795 10792 10790 10788 10787 10786 10785 10784 10784 10783 10782 10781 10780 10779 10778 10777 10777 10778 10778 10777 10776 10774 10773 10772 10771 10770 10768 10767 10766 10764 10762 10761 10759 10758 10756 10754 10752 10750 10748 10746 10745 10744 10744 10743 10743 10742 10741 10740
10828 10828 10829 10829 10829 10828 10827 10826 10825 10825 10826 10826 10826 10826 10824 10823 10821 10819 10817 10816 10815 10814 10813 10813 10813 10812 10810 10809 10807 10805 10803 10801 10799 10798 10797 10795 10794 10792 10789 10787 10786 10785 10784 10783 10783 10782 10782 10781 10780 10779 10778 10777 10776 10776 10776 10777 10777 10776 10774 10773 10771 10770 10768 10767 10766 10764 10763 10761 10760 10758 10756 10755 10753 10750 10748 10746 10745 10744 10743 10742 10741 10741 10740 10739 10739
10823 10823 10824 10824 10824 10823 10822 10821 10820 10821 10822 10822 10822 10821 10819 10817 10816 10814 10813 10812 10811 10810 10809 10809 10809 10808 10807 10806 10804 10802 10800 10799 10797 10796 10794 10792 10791 10789 10787 10785 10785 10784 10783 10782 10781 10781 10781 10780 10779 10778 10777 10776 10775 10774 10775 10775 10776 10775 10773 10772 10770 10769 10767 10765 10764 10763 10762 10760 10759 10757 10755 10753 10751 10749 10747 10745 10743 10742 10741 10740 10740 10739 10738 10737 10737
10819 10819 10819 10820 10819 10818 10817 10816 10816 10817 10818 10818 10816 10815 10814 10813 10811 10810 10809 10809 10808 10807 10806 10806 10806 10805 10804 10803 10801 10799 10798 10797 10795 10794 10792 10790 10788 10787 10785 10784 10783 10782 10781 10781 10781 10780 10780 10779 10778 10777 10776 10775 10774 10773 10773 10773 10774 10774 10772 10771 10769 10768 10766 10764 10763 10762 10760 10759 10757 10755 10754 10752 10750 10748 10746 10744 10742 10741 10740 10739 10738 10737 10737 10736 10735
10814 10815 10816 10816 10814 10813 10811 10811 10812 10814 10813 10812 10811 10810 10809 10808 10807 10806 10806 10806 10805 10804 10803 10803 10802 10801 10800 10800 10799 10797 10796 10794 10793 10792 10790 10788 10786 10784 10783 10782 10782 10781 10780 10780 10780 10779 10779 10778 10777 10776 10775 10773 10773 10773 10772 10771 10772 10772 10771 10769 10768 10767 10765 10763 10762 10761 10759 10757 10756 10754 10752 10751 10749 10747 10744 10742 10741 10739 10738 10737 10736 10736 10735 10734 10734
10810 10811 10811 10810 10809 10806 10806 10807 10809 10809 10808 10807 10806 10805 10804 10804 10803 10802 10802 10802 10802 10801 10800 10800 10799 10798 10797 10796 10796 10795 10794 10793 10791 10790 10789 10786 10784 10782 10781 10781 10781 10780 10779 10779 10778 10778 10777 10776 10776 10775 10774 10772 10772 10771 10770 10770 10770 10770 10770 10768 10766 10765 10764 10762 10761 10760 10758 10756 10755 10753 10752 10750 10748 10746 10743 10741 10740 10738 10737 10736 10735 10734 10733 10733 10732
10806 10806 10806 10804 10801 10801 10802 10804 10804 10803 10802 10802 10802 10801 10800 10799 10799 10799 10798 10799 10798 10798 10797 10796 10795 10794 10793 10793 10793 10792 10791 10791 10790 10788 10786 10785 10782 10780 10779 10779 10779 10778 10777 10777 10777 10776 10775 10775 10774 10773 10772 10771 10771 10770 10769 10768 10768 10769 10768 10767 10765 10763 10762 10761 10759 10758 10756 10755 10753 10752 10751 10750 10748 10745 10743 10741 10739 10737 10736 10735 10734 10733 10732 10732 10731
10801 10800 10799 10797 10795 10796 10798 10799 10799 10798 10797 10797 10797 10797 10796 10795 10795 10795 10795 10795 10795 10794 10794 10793 10792 10791 10789 10789 10789 10789 10788 10788 10787 10786 10784 10782 10781 10778 10777 10776 10777 10776 10775 10775 10774 10774 10773 10773 10772 10771 10771 10770 10769 10769 10767 10766 10766 10767 10767 10765 10763 10761 10761 10760 10758 10756 10755 10753 10752 10751 10750 10749 10747 10744 10742 10740 10738 10736 10735 10733 10732 10732 10731 10730 10730
10795 10794 10792 10791 10790 10792 10795 10795 10794 10792 10792 10792 10793 10792 10791 10791 10791 10792 10791 10791 10791 10790 10790 10789 10788 10787 10786 10785 10785 10785 10785 10785 10784 10783 10781 10780 10778 10776 10775 10774 10774 10774 10773 10772 10772 10772 10771 10770 10770 10769 10769 10769 10768 10768 10765 10763 10763 10765 10765 10764 10762 10759 10759 10758 10756 10754 10753 10752 10751 10749 10748 10747 10745 10743 10741 10739 10737 10735 10734 10732 10731 10730 10730 10729 10729
10788 10787 10787 10787 10787 10789 10791 10790 10789 10788 10788 10788 10789 10787 10786 10785 10786 10787 10787 10786 10786 10786 10786 10785 10784 10783 10783 10781 10781 10781 10781 10781 10781 10780 10779 10777 10776 10774 10773 10772 10772 10771 10771 10770 10769 10769 10769 10768 10768 10768 10768 10767 10767 10766 10763 10760 10759 10761 10763 10763 10761 10759 10757 10756 10754 10753 10752 10751 10749 10748 10747 10745 10744 10742 10740 10738 10736 10735 10733 10732 10730 10729 10729 10728 10728
10782 10779 10780 10782 10783 10785 10785 10785 10784 10784 10785 10785 10784 10782 10781 10781 10781 10782 10781 10781 10781 10781 10781 10780 10780 10779 10779 10778 10777 10777 10778 10777 10777 10777 10776 10775 10773 10771 10770 10769 10769 10769 10769 10767 10767 10766 10766 10766 10766 10766 10766 10766 10766 10765 10761 10758 10756 10758 10760 10761 10760 10758 10756 10754 10752 10751 10751 10750 10748 10746 10745 10744 10742 10741 10739 10737 10736 10734 10732 10731 10730 10729 10728 10727 10727
10776 10771 10773 10776 10778 10779 10780 10780 10780 10780 10781 10781 10780 10779 10778 10778 10778 10777 10777 10777 10777 10777 10776 10775 10775 10775 10775 10774 10773 10773 10773 10774 10774 10773 10772 10771 10770 10768 10767 10766 10766 10766 10766 10765 10764 10763 10763 10764 10764 10764 10764 10764 10764 10762 10760 10756 10754 10755 10757 10758 10758 10757 10755 10753 10751 10749 10749 10748 10746 10745 10743 10742 10741 10739 10738 10736 10735 10733 10732 10730 10729 10728 10727 10726 10726
10771 10769 10768 10769 10772 10774 10775 10775 10776 10776 10776 10776 10776 10775 10775 10775 10774 10774 10773 10773 10773 10772 10771 10770 10770 10770 10770 10770 10769 10769 10769 10770 10770 10769 10769 10768 10767 10765 10764 10763 10762 10762 10763 10762 10761 10761 10761 10761 10761 10762 10762 10761 10761 10760 10758 10756 10754 10753 10754 10755 10755 10755 10754 10752 10750 10748 10746 10745 10744 10743 10741 10740 10739 10738 10736 10735 10734 10733 10732 10730 10728 10727 10726 10725 10725
10770 10767 10763 10762 10765 10768 10770 10770 10771 10772 10771 10772 10771 10770 10770 10771 10771 10770 10769 10768 10768 10768 10767 10766 10766 10766 10766 10766 10765 10765 10765 10765 10766 10765 10765 10764 10763 10762 10760 10760 10758 10758 10759 10759 10759 10758 10757 10758 10759 10760 10759 10757 10756 10756 10756 10756 10754 10751 10751 10752 10752 10753 10752 10750 10749 10746 10744 10743 10742 10741 10740 10738 10737 10736 10735 10734 10733 10732 10731 10729 10728 10727 10725 10725 10724
10767 10764 10761 10760 10760 10762 10765 10765 10765 10767 10767 10767 10766 10766 10765 10766 10767 10766 10765 10764 10764 10764 10763 10763 10762 10762 10762 10761 10761 10762 10762 10762 10762 10761 10761 10760 10760 10759 10757 10756 10755 10755 10756 10756 10756 10755 10754 10755 10757 10757 10755 10753 10753 10754 10755 10755 10753 10750 10749 10749 10749 10750 10750 10748 10746 10745 10743 10741 10740 10739 10738 10736 10735 10734 10733 10732 10731 10730 10730 10728 10727 10726 10725 10723 10723
10762 10761 10760 10758 10757 10759 10760 10758 10760 10762 10763 10763 10763 10763 10761 10761 10763 10762 10761 10760 10760 10760 10760 10759 10759 10759 10758 10757 10757 10758 10758 10758 10758 10757 10756 10755 10755 10755 10754 10753 10752 10752 10752 10752 10752 10752 10752 10753 10754 10753 10750 10749 10751 10752 10753 10753 10751 10749 10748 10747 10747 10747 10747 10746 10744 10743 10741 10740 10739 10737 10736 10734 10733 10731 10731 10730 10730 10729 10728 10727 10726 10725 10724 10722 10721
10756 10756 10756 10755 10755 10757 10756 10753 10754 10757 10758 10759 10759 10759 10758 10757 10757 10757 10756 10756 10756 10756 10756 10756 10755 10755 10755 10754 10754 10754 10754 10754 10754 10753 10752 10751 10751 10751 10751 10750 10748 10748 10749 10749 10749 10749 10749 10750 10751 10749 10746 10747 10749 10750 10751 10751 10749 10748 10747 10746 10745 10745 10744 10743 10742 10741 10739 10738 10737 10735 10734 10732 10731 10729 10729 10728 10728 10727 10726 10725 10724 10723 10722 10721 10720
10750 10751 10751 10751 10754 10755 10753 10749 10749 10752 10753 10754 10756 10755 10753 10752 10753 10753 10752 10751 10751 10752 10752 10752 10751 10751 10751 10751 10750 10750 10750 10750 10749 10749 10748 10747 10746 10747 10748 10746 10745 10745 10746 10746 10746 10746 10746 10746 10746 10744 10743 10745 10747 10748 10748 10748 10747 10746 10745 10744 10743 10743 10742 10740 10739 10738 10737 10736 10735 10733 10731 10730 10729 10728 10727 10726 10726 10725 10724 10723 10723 10721 10720 10719 10718
10744 10746 10747 10749 10752 10754 10753 10748 10745 10747 10747 10749 10751 10750 10748 10747 10748 10750 10749 10747 10747 10747 10747 10747 10747 10747 10748 10747 10746 10746 10746 10745 10745 10745 10744 10743 10742 10743 10743 10743 10741 10741 10743 10743 10743 10743 10742 10742 10742 10741 10741 10742 10744 10745 10745 10745 10745 10743 10742 10741 10741 10740 10739 10738 10737 10735 10734 10734 10732 10730 10729 10728 10727 10726 10725 10724 10724 10723 10722 10721 10721 10719 10718 10717 10716
10738 10740 10744 10748 10750 10753 10752 10746 10742 10741 10742 10744 10745 10745 10743 10742 10743 10744 10744 10742 10741 10741 10742 10742 10743 10744 10744 10744 10743 10742 10742 10741 10741 10741 10740 10740 10738 10738 10739 10739 10738 10737 10738 10740 10740 10739 10738 10738 10739 10739 10738 10739 10741 10741 10741 10742 10742 10740 10739 10739 10738 10738 10737 10735 10734 10733 10732 10731 10729 10727 10726 10725 10725 10724 10723 10723 10722 10722 10721 10720 10718 10717 10716 10715 10714
10733 10736 10741 10745 10747 10750 10750 10742 10736 10736 10738 10740 10740 10739 10738 10738 10739 10739 10739 10738 10736 10736 10736 10737 10738 10739 10739 10739 10739 10738 10737 10736 10736 10736 10736 10736 10734 10733 10734 10735 10734 10733 10733 10735 10736 10734 10734 10735 10737 10735 10734 10735 10737 10737 10737 10737 10737 10736 10736 10736 10735 10735 10734 10733 10731 10730 10729 10728 10726 10725 10724 10723 10722 10722 10722 10721 10720 10720 10719 10717 10716 10715 10714 10713 10712
10728 10731 10735 10740 10742 10743 10741 10733 10730 10731 10732 10733 10733 10733 10733 10734 10734 10734 10734 10733 10732 10731 10732 10733 10733 10733 10733 10733 10733 10733 10732 10731 10731 10732 10732 10731 10730 10729 10731 10733 10732 10730 10729 10730 10730 10729 10731 10733 10733 10731 10731 10732 10733 10733 10734 10733 10733 10732 10733 10732 10732 10732 10730 10729 10728 10726 10725 10724 10723 10722 10721 10721 10721 10720 10720 10719 10719 10717 10716 10715 10714 10712 10712 10711 10710
10721 10723 10727 10732 10735 10735 10732 10729 10728 10726 10725 10726 10728 10728 10729 10730 10730 10731 10730 10729 10729 10728 10728 10728 10728 10727 10727 10727 10727 10727 10727 10727 10727 10729 10729 10728 10725 10725 10728 10729 10729 10728 10726 10725 10724 10725 10728 10730 10730 10729 10728 10729 10729 10730 10730 10730 10729 10729 10729 10728 10728 10728 10726 10724 10723 10722 10721 10721 10720 10720 10719 10719 10718 10718 10718 10717 10716 10715 10714 10713 10712 10710 10709 10709 10708
10713 10714 10717 10722 10726 10728 10728 10727 10724 10720 10719 10722 10725 10726 10727 10727 10727 10726 10725 10725 10725 10724 10724 10723 10723 10722 10721 10722 10722 10722 10723 10723 10723 10724 10724 10724 10721 10721 10723 10725 10726 10725 10724 10721 10720 10720 10723 10725 10726 10726 10726 10725 10726 10727 10727 10727 10727 10726 10725 10725 10724 10724 10722 10720 10719 10719 10718 10718 10718 10717 10717 10716 10716 10716 10715 10714 10713 10712 10711 10710 10709 10708 10707 10706 10705
10706 10706 10707 10713 10719 10722 10723 10721 10718 10714 10714 10718 10721 10723 10723 10722 10721 10720 10719 10720 10720 10720 10719 10719 10718 10717 10716 10717 10718 10718 10719 10720 10720 10720 10719 10718 10718 10717 10719 10722 10722 10722 10722 10720 10717 10717 10719 10720 10721 10721 10722 10722 10723 10724 10724 10724 10724 10724 10723 10723 10722 10721 10719 10718 10718 10717 10717 10716 10716 10715 10714 10713 10713 10712 10712 10711 10710 10709 10708 10707 10707 10705 10704 10703 10702
10697 10698 10700 10705 10712 10716 10716 10714 10712 10710 10711 10714 10717 10718 10718 10716 10714 10713 10714 10715 10716 10716 10715 10715 10713 10712 10712 10712 10713 10715 10715 10715 10716 10716 10715 10714 10713 10713 10715 10717 10719 10719 10719 10718 10716 10716 10718 10719 10719 10718 10719 10719 10720 10720 10721 10721 10721 10721 10721 10721 10720 10719 10718 10717 10717 10717 10716 10714 10714 10713 10712 10711 10710 10709 10708 10707 10706 10706 10705 10704 10703 10702 10701 10700 10699
10689 10691 10695 10699 10705 10709 10709 10708 10708 10707 10707 10710 10713 10713 10712 10710 10709 10708 10708 10710 10711 10711 10711 10710 10709 10708 10708 10708 10709 10710 10711 10711 10712 10713 10713 10711 10710 10709 10710 10712 10714 10715 10715 10716 10715 10714 10716 10718 10717 10716 10716 10716 10717 10717 10718 10718 10718 10718 10718 10718 10718 10718 10717 10715 10715 10715 10713 10713 10712 10711 10709 10707 10705 10704 10704 10703 10702 10702 10701 10700 10700 10699 10698 10697 10696
10682 10685 10690 10693 10696 10700 10701 10700 10701 10701 10701 10704 10707 10707 10705 10705 10705 10704 10705 10707 10708 10707 10707 10706 10704 10704 10704 10704 10705 10705 10706 10707 10708 10708 10708 10708 10707 10707 10706 10707 10709 10710 10712 10712 10712 10711 10712 10714 10714 10713 10713 10714 10714 10715 10715 10715 10715 10715 10715 10715 10715 10715 10715 10713 10713 10712 10711 10710 10709 10708 10706 10704 10701 10700 10700 10699 10699 10698 10698 10697 10697 10696 10695 10694 10694
10676 10678 10683 10685 10686 10689 10691 10691 10692 10693 10695 10697 10701 10701 10700 10700 10700 10701 10702 10703 10704 10703 10703 10702 10700 10699 10699 10700 10700 10701 10701 10702 10703 10704 10704 10703 10703 10703 10703 10703 10705 10707 10709 10709 10709 10707 10708 10710 10710 10710 10710 10711 10711 10712 10712 10712 10712 10712 10712 10712 10712 10712 10712 10711 10710 10710 10709 10708 10707 10705 10703 10700 10698 10696 10695 10696 10696 10696 10695 10695 10694 10693 10692 10692 10691
10670 10671 10674 10676 10677 10678 10681 10683 10684 10686 10689 10691 10694 10696 10696 10695 10695 10697 10698 10698 10699 10699 10699 10699 10698 10697 10696 10696 10696 10697 10698 10698 10699 10700 10700 10700 10698 10698 10699 10699 10701 10704 10706 10706 10706 10704 10704 10706 10707 10707 10707 10707 10708 10708 10709 10709 10709 10709 10709 10709 10709 10710 10709 10708 10708 10707 10706 10705 10704 10702 10700 10697 10694 10691 10690 10690 10692 10692 10692 10692 10691 10690 10689 10689 10688
10664 10664 10665 10668 10669 10671 10673 10676 10678 10680 10683 10686 10689 10691 10690 10691 10691 10692 10693 10692 10693 10694 10694 10695 10694 10694 10693 10692 10693 10694 10694 10694 10694 10695 10696 10696 10695 10694 10694 10695 10697 10700 10702 10703 10702 10702 10702 10703 10704 10704 10704 10704 10704 10705 10705 10705 10705 10706 10706 10705 10705 10706 10706 10704 10704 10703 10702 10701 10700 10698 10695 10693 10690 10688 10687 10686 10687 10688 10688 10688 10687 10686 10686 10685 10685
10660 10660 10660 10660 10662 10664 10667 10669 10672 10675 10678 10682 10686 10686 10685 10686 10687 10687 10688 10687 10687 10688 10689 10690 10690 10690 10689 10688 10688 10689 10689 10689 10689 10690 10690 10690 10690 10690 10689 10690 10693 10695 10696 10697 10698 10699 10699 10700 10701 10701 10701 10701 10701 10702 10702 10701 10702 10702 10702 10701 10702 10702 10701 10700 10700 10699 10699 10697 10696 10694 10691 10688 10686 10685 10684 10684 10685 10685 10685 10684 10684 10683 10683 10682 10682
10657 10657 10655 10654 10656 10659 10661 10664 10666 10670 10674 10678 10682 10682 10682 10682 10682 10682 10682 10682 10682 10683 10684 10684 10684 10684 10684 10683 10683 10683 10684 10684 10684 10684 10684 10684 10684 10684 10685 10687 10689 10689 10689 10690 10692 10694 10694 10695 10696 10697 10697 10698 10698 10698 10698 10698 10698 10698 10698 10698 10698 10698 10697 10696 10696 10695 10694 10693 10692 10689 10686 10684 10682 10681 10681 10682 10682 10682 10682 10681 10681 10681 10680 10680 10680
10658 10657 10653 10651 10651 10652 10656 10659 10663 10667 10671 10675 10679 10679 10679 10678 10678 10676 10676 10676 10677 10678 10679 10679 10679 10678 10677 10677 10677 10677 10677 10677 10677 10677 10678 10678 10677 10678 10681 10684 10685 10684 10683 10684 10687 10689 10689 10690 10691 10692 10693 10693 10694 10694 10694 10694 10694 10694 10694 10694 10694 10695 10694 10693 10692 10691 10690 10688 10687 10685 10682 10680 10679 10677 10677 10678 10679 10679 10678 10678 10678 10678 10677 10677 10677
10652 10652 10647 10646 10646 10646 10653 10659 10662 10666 10670 10674 10677 10677 10676 10675 10674 10671 10670 10671 10673 10674 10674 10674 10673 10672 10671 10670 10670 10670 10671 10671 10671 10671 10671 10672 10672 10673 10676 10678 10679 10679 10678 10679 10683 10684 10685 10685 10686 10687 10687 10688 10689 10689 10689 10690 10690 10690 10690 10691 10691 10691 10691 10690 10688 10687 10684 10682 10681 10680 10678 10676 10675 10674 10673 10675 10676 10676 10675 10674 10675 10675 10674 10674 10673